Time,TemperatureF,DewpointF,PressureIn,WindDirection,WindDirectionDegrees,WindSpeedMPH,WindSpeedGustMPH,Humidity,HourlyPrecipIn,Conditions,Clouds,dailyrainin,SoftwareType,DateUTC
2013-11-25 00:02:00,22.0,4.0,30.20,SSW,198,6.0,23.0,46,0.00,,,0.00,,2013-11-25 06:02:00,
2013-11-25 01:42:00,22.0,5.0,30.17,South,186,7.0,16.0,48,0.00,,,0.00,,2013-11-25 07:42:00,
2013-11-25 01:52:00,22.0,5.0,30.17,South,186,7.0,16.0,48,0.00,,,0.00,,2013-11-25 07:52:00,
2013-11-25 02:02:00,22.0,5.0,30.17,South,186,7.0,16.0,48,0.00,,,0.00,,2013-11-25 08:02:00,
2013-11-25 02:42:00,22.0,5.0,30.17,South,186,7.0,7.0,48,0.00,,,0.00,,2013-11-25 08:42:00,
2013-11-25 02:52:00,22.0,5.0,30.17,South,186,7.0,7.0,48,0.00,,,0.00,,2013-11-25 08:52:00,
2013-11-25 03:02:00,22.0,5.0,30.17,South,186,7.0,7.0,48,0.00,,,0.00,,2013-11-25 09:02:00,
2013-11-25 03:43:00,22.0,5.0,30.17,South,186,7.0,7.0,48,0.00,,,0.00,,2013-11-25 09:43:00,
2013-11-25 03:53:00,22.0,5.0,30.17,South,186,7.0,7.0,48,0.00,,,0.00,,2013-11-25 09:53:00,
2013-11-25 04:03:00,22.0,5.0,30.17,South,186,7.0,7.0,48,0.00,,,0.00,,2013-11-25 10:03:00,
2013-11-25 04:43:00,22.0,5.0,30.17,South,186,7.0,7.0,48,0.00,,,0.00,,2013-11-25 10:43:00,
2013-11-25 04:53:00,22.0,5.0,30.17,South,186,7.0,7.0,48,0.00,,,0.00,,2013-11-25 10:53:00,
2013-11-25 05:03:00,22.0,5.0,30.17,South,186,7.0,7.0,48,0.00,,,0.00,,2013-11-25 11:03:00,
2013-11-25 05:43:00,22.0,5.0,30.17,South,186,7.0,7.0,48,0.00,,,0.00,,2013-11-25 11:43:00,
2013-11-25 05:52:00,22.0,5.0,30.17,South,186,7.0,7.0,48,0.00,,,0.00,,2013-11-25 11:52:00,
2013-11-25 06:02:00,22.0,5.0,30.17,South,186,7.0,7.0,48,0.00,,,0.00,,2013-11-25 12:02:00,
2013-11-25 06:42:00,22.0,5.0,30.17,South,186,7.0,7.0,48,0.00,,,0.00,,2013-11-25 12:42:00,
2013-11-25 06:52:00,22.0,5.0,30.17,South,186,7.0,7.0,48,0.00,,,0.00,,2013-11-25 12:52:00,
2013-11-25 08:42:00,22.0,19.0,30.00,SW,222,3.0,16.0,89,0.00,,,0.00,,2013-11-25 14:42:00,
2013-11-25 08:52:00,22.0,19.0,30.00,SW,222,3.0,16.0,89,0.00,,,0.00,,2013-11-25 14:52:00,
2013-11-25 09:02:00,22.0,19.0,30.00,SW,222,3.0,16.0,89,0.00,,,0.00,,2013-11-25 15:02:00,
2013-11-25 09:45:00,22.0,20.0,29.99,SSW,206,7.0,21.0,90,0.00,,,0.00,,2013-11-25 15:45:00,
2013-11-25 09:54:00,22.0,20.0,29.99,SSW,206,7.0,21.0,90,0.00,,,0.00,,2013-11-25 15:54:00,
2013-11-25 10:04:00,22.0,20.0,29.99,SSW,206,7.0,21.0,90,0.00,,,0.00,,2013-11-25 16:04:00,
2013-11-25 10:43:00,24.0,20.0,29.96,SW,217,5.0,24.0,85,0.00,,,0.00,,2013-11-25 16:43:00,
2013-11-25 10:52:00,24.0,20.0,29.96,SW,217,5.0,24.0,85,0.00,,,0.00,,2013-11-25 16:52:00,
2013-11-25 11:03:00,24.0,20.0,29.96,SW,217,5.0,24.0,85,0.00,,,0.00,,2013-11-25 17:03:00,
2013-11-25 11:43:00,25.0,20.0,29.96,West,281,5.0,28.0,82,0.00,,,0.00,,2013-11-25 17:43:00,
2013-11-25 11:52:00,25.0,20.0,29.96,West,281,5.0,28.0,82,0.00,,,0.00,,2013-11-25 17:52:00,
2013-11-25 12:02:00,25.0,20.0,29.96,West,281,5.0,28.0,82,0.00,,,0.00,,2013-11-25 18:02:00,
2013-11-25 12:42:00,26.0,21.0,29.93,SSW,194,6.0,26.0,81,0.00,,,0.00,,2013-11-25 18:42:00,
2013-11-25 12:52:00,26.0,21.0,29.93,SSW,194,6.0,26.0,81,0.00,,,0.00,,2013-11-25 18:52:00,
2013-11-25 13:02:00,26.0,21.0,29.93,SSW,194,6.0,26.0,81,0.00,,,0.00,,2013-11-25 19:02:00,
2013-11-25 13:42:00,27.0,22.0,29.93,SSW,211,3.0,20.0,81,0.00,,,0.00,,2013-11-25 19:42:00,
2013-11-25 13:52:00,27.0,22.0,29.93,SSW,211,3.0,20.0,81,0.00,,,0.00,,2013-11-25 19:52:00,
2013-11-25 14:01:00,27.0,22.0,29.93,SSW,211,3.0,20.0,81,0.00,,,0.00,,2013-11-25 20:01:00,
2013-11-25 15:44:00,28.0,23.0,29.93,SW,232,4.0,15.0,82,0.00,,,0.00,,2013-11-25 21:44:00,
2013-11-25 15:54:00,28.0,23.0,29.93,SW,232,4.0,15.0,82,0.00,,,0.00,,2013-11-25 21:54:00,
2013-11-25 16:03:00,28.0,23.0,29.93,SW,232,4.0,15.0,82,0.00,,,0.00,,2013-11-25 22:03:00,
2013-11-25 16:43:00,27.0,23.0,29.94,South,169,5.0,16.0,83,0.00,,,0.00,,2013-11-25 22:43:00,
2013-11-25 16:53:00,27.0,23.0,29.94,South,169,5.0,16.0,83,0.00,,,0.00,,2013-11-25 22:53:00,
2013-11-25 17:02:00,27.0,23.0,29.94,South,169,5.0,16.0,83,0.00,,,0.00,,2013-11-25 23:02:00,
2013-11-25 17:42:00,27.0,23.0,29.96,SSW,202,2.0,14.0,84,0.00,,,0.00,,2013-11-25 23:42:00,
2013-11-25 17:52:00,27.0,23.0,29.96,SSW,202,2.0,14.0,84,0.00,,,0.00,,2013-11-25 23:52:00,
2013-11-25 18:01:00,27.0,23.0,29.96,SSW,202,2.0,14.0,84,0.00,,,0.00,,2013-11-26 00:01:00,
2013-11-25 18:42:00,27.0,23.0,29.98,WSW,246,4.0,15.0,84,0.00,,,0.00,,2013-11-26 00:42:00,
2013-11-25 18:52:00,27.0,23.0,29.98,WSW,246,4.0,15.0,84,0.00,,,0.00,,2013-11-26 00:52:00,
2013-11-25 19:01:00,27.0,23.0,29.98,WSW,246,4.0,15.0,84,0.00,,,0.00,,2013-11-26 01:01:00,
2013-11-25 19:42:00,27.0,23.0,29.98,SSW,205,5.0,12.0,85,0.00,,,0.00,,2013-11-26 01:42:00,
2013-11-25 19:52:00,27.0,23.0,29.98,SSW,205,5.0,12.0,85,0.00,,,0.00,,2013-11-26 01:52:00,
2013-11-25 20:02:00,27.0,23.0,29.98,SSW,205,5.0,12.0,85,0.00,,,0.00,,2013-11-26 02:02:00,
2013-11-25 20:42:00,27.0,23.0,29.98,SW,215,5.0,17.0,84,0.00,,,0.00,,2013-11-26 02:42:00,
2013-11-25 20:52:00,27.0,23.0,29.98,SW,215,5.0,17.0,84,0.00,,,0.00,,2013-11-26 02:52:00,
2013-11-25 21:01:00,27.0,23.0,29.98,SW,215,5.0,17.0,84,0.00,,,0.00,,2013-11-26 03:01:00,
2013-11-25 21:44:00,27.0,23.0,29.97,SSW,192,3.0,12.0,84,0.00,,,0.00,,2013-11-26 03:44:00,
2013-11-25 21:54:00,27.0,23.0,29.97,SSW,192,3.0,12.0,84,0.00,,,0.00,,2013-11-26 03:54:00,
2013-11-25 22:03:00,27.0,23.0,29.97,SSW,192,3.0,12.0,84,0.00,,,0.00,,2013-11-26 04:03:00,
2013-11-25 22:44:00,28.0,24.0,29.97,SSW,194,2.0,12.0,84,0.00,,,0.00,,2013-11-26 04:44:00,
2013-11-25 22:53:00,28.0,24.0,29.97,SSW,194,2.0,12.0,84,0.00,,,0.00,,2013-11-26 04:53:00,
2013-11-25 23:03:00,28.0,24.0,29.97,SSW,194,2.0,12.0,84,0.00,,,0.00,,2013-11-26 05:03:00,
2013-11-25 23:43:00,27.0,23.0,29.96,South,189,3.0,12.0,84,0.00,,,0.00,,2013-11-26 05:43:00,
2013-11-25 23:53:00,27.0,23.0,29.96,South,189,3.0,12.0,84,0.00,,,0.00,,2013-11-26 05:53:00,